Regional Weather Roundup
Issued by NWS

Home | Current Version | Previous Version | Graphics & Text | Print | Product List | Glossary On
Versions: 1 2 3 4 5 6 7 8 9 10 11 12 13 14 15 16 17 18 19 20 21 22 23 24 25 26 27 28 29 30 31 32 33 34 35 36 37 38 39 40 41 42 43 44 45 46 47 48 49 50
000
ASUS43 KFSD 161402
RWRSD

WEATHER ROUNDUP FOR SOUTH DAKOTA
NATIONAL WEATHER SERVICE SIOUX FALLS SD
800 AM CST SAT DEC 16 2017

NOTE: "FAIR" INDICATES FEW OR NO CLOUDS BELOW 12,000 FEET WITH NO
SIGNIFICANT WEATHER AND/OR OBSTRUCTIONS TO VISIBILITY.


SDZ001>005-009-010-012>017-161500-
NORTHWEST AND NORTH CENTRAL SOUTH DAKOTA

CITY           SKY/WX    TMP DP  RH WIND       PRES   REMARKS
BUFFALO          N/A     33  28  81 NW16      29.82R WCI  23
FAITH            N/A     34  31  88 NW15      29.86R WCI  24
MOBRIDGE       MOCLDY    38  33  82 NW10      29.80R
$$

SDZ012>016-024>037-041>051-057-063-072>074-161500-
SOUTHWEST AND SOUTH CENTRAL SOUTH DAKOTA

CITY           SKY/WX    TMP DP  RH WIND       PRES   REMARKS
RAPID CTY ARPT MOCLDY    34  25  69 N15       29.87R WCI  24
PIERRE         CLOUDY    33  28  81 NW12      29.83R WCI  24
CUSTER         CLOUDY    34  22  61 N6G17     29.80R WCI  29
ELLSWORTH AFB  CLOUDY    35  28  75 N16       29.87  WCI  25
PHILIP         PTCLDY    33  27  78 NW10      29.87R WCI  25
PINE RIDGE     CLOUDY    37  23  56 N12       29.87R
SPEARFISH      CLOUDY    32  27  80 NW8       29.89R WCI  25
WINNER         FAIR      33  23  66 W7        29.82R WCI  27
$$

SDZ004>011-016>023-039-040-161500-
NORTHEAST SOUTH DAKOTA

CITY           SKY/WX    TMP DP  RH WIND       PRES   REMARKS
ABERDEEN       CLOUDY    34  33  96 SW5       29.79R WCI  30
WATERTOWN      MOCLDY    33  30  88 NW8       29.74R WCI  26
BROOKINGS      CLOUDY    26  22  84 NW5       29.77R WCI  20
SISSETON         N/A     34  30  85 NW12      29.76R WCI  25
$$

SDZ017-020-022-023-036>040-048>070-161500-
SOUTHEAST SOUTH DAKOTA

CITY           SKY/WX    TMP DP  RH WIND       PRES   REMARKS
SIOUX FALLS    PTCLDY    30  25  81 S3        29.76R
HURON          MOCLDY    32  28  85 NW12      29.79R WCI  23
CHAMBERLAIN    CLOUDY    36  27  69 NW5       29.81R
MITCHELL       CLOUDY    32  25  75 NW7       29.81R WCI  26
YANKTON        CLOUDY    31  25  78 NW7       29.79R WCI  24
$$

ABBREVIATIONS USED IN REMARKS
   TC - TEMPERATURE IN CELSIUS
  WCI - WIND CHILL INDEX
   HX - HEAT INDEX
  VSB - VISIBILITY





USA.gov is the U.S. government's official web portal to all federal, state and local government web resources and services.